RH
46 44 43 39 34 30 26 22 17 13 9 4 3 2 2 2 3 4 5 6 8 10 13 14 14 16 18 19 17 16 17 19 19 17 14 12 14 14
47 46 44 39 33 29 24 17 10 5 4 3 2 2 3 4 6 7 8 12 15 15 15 16 19 21 19 14 11 12 14 18 22 24 24 23 18 25
48 47 43 36 30 25 18 9 4 3 2 2 3 4 5 5 8 10 15 18 18 21 24 25 25 23 19 17 16 13 14 16 19 24 27 26 24 23
50 46 39 32 25 16 8 4 3 2 2 2 4 6 7 9 12 15 19 20 25 28 28 26 26 25 25 24 23 21 21 21 21 21 21 20 20 22
50 42 33 26 15 7 3 3 3 4 6 6 7 9 12 15 17 21 21 25 30 32 36 33 32 32 30 32 31 28 28 28 29 29 29 28 23 22
45 35 26 15 6 3 3 4 5 7 10 10 13 15 17 21 23 23 25 32 30 34 40 39 40 39 41 41 40 41 39 35 31 29 29 29 30 30
35 25 13 5 3 3 4 6 10 12 13 15 16 19 23 27 32 34 34 32 33 34 35 37 44 47 51 52 52 51 42 30 25 23 24 26 26 25
23 11 4 3 3 5 8 13 15 16 20 23 24 33 37 41 41 44 45 41 34 39 35 32 44 44 51 54 55 51 40 30 26 23 30 39 64 58
10 4 3 4 6 9 13 17 20 26 30 28 34 43 45 55 52 49 49 46 41 42 42 37 48 44 47 51 56 40 30 24 23 39 55 60 69 67
3 3 5 7 11 15 15 18 25 27 30 37 50 54 58 58 58 52 49 45 43 47 52 44 50 47 48 55 50 38 29 27 37 50 55 69 75 76
4 6 8 13 17 19 22 25 27 32 37 51 59 61 54 47 42 36 35 34 34 41 57 54 52 49 51 56 58 47 37 41 55 61 65 68 68 76
8 10 15 18 22 28 29 28 31 36 40 48 49 40 36 36 38 37 35 36 39 34 58 60 59 58 46 54 58 62 48 58 72 73 66 69 76 80
11 14 19 25 31 33 35 37 41 46 47 45 39 35 33 33 38 42 42 40 40 47 71 73 65 65 70 57 61 69 61 54 68 67 69 74 79 81
15 22 29 32 33 35 39 43 42 39 36 33 31 32 34 38 43 46 47 50 54 68 77 84 75 75 72 69 66 68 68 58 67 76 75 83 83 81
27 32 32 31 32 33 34 34 32 32 32 32 34 38 43 44 47 49 49 53 53 68 87 93 91 85 82 78 72 70 60 58 65 74 85 85 79 74
32 29 24 23 24 27 30 32 33 34 33 33 39 46 50 51 51 51 47 49 50 53 83 94 93 94 86 88 84 67 60 65 70 76 95 88 86 80
21 20 24 26 29 33 35 36 36 36 37 42 46 47 51 52 53 60 63 61 62 64 70 90 98 98 96 94 84 79 62 72 78 83 93 86 82 83
22 25 29 31 32 33 38 47 50 48 47 47 49 54 57 61 66 73 79 79 76 76 80 90 93 91 93 95 93 84 74 76 81 85 88 80 71 83
29 30 29 27 23 26 37 44 52 52 50 51 57 63 69 80 85 84 85 86 85 83 86 93 93 94 87 81 93 96 73 82 90 85 85 86 73 70
26 16 12 10 10 15 30 47 53 57 61 64 67 69 88 92 89 89 90 93 88 86 85 95 99 99 95 89 80 89 94 75 84 77 82 89 86 81
9 8 9 10 12 14 15 15 18 28 45 57 66 80 94 94 92 93 94 93 96 96 90 92 99 99 98 93 83 85 95 93 85 93 89 83 82 74
9 11 13 14 15 14 15 18 22 29 39 54 69 92 96 94 96 94 94 93 95 98 97 95 97 97 98 99 94 90 92 96 92 96 100 94 87 73
12 14 16 18 20 22 25 29 38 49 60 73 88 95 95 92 94 93 96 98 100 95 97 94 99 100 100 100 95 89 89 98 96 91 93 100 98 86
Wind_Speed
26 29 32 34 36 37 39 41 45 50 49 46 47 45 46 45 44 43 42 40 38 37 37 38 39 39 38 36 35 35 37 39 42 44 47 51 54 48
28 32 34 35 37 38 40 43 45 49 53 51 50 50 49 47 45 44 42 41 36 35 36 37 37 38 38 36 35 35 35 35 37 39 42 44 48 49
30 34 36 37 38 40 42 44 45 48 52 51 50 49 49 49 45 42 42 42 40 37 35 35 35 36 36 36 37 37 36 35 35 35 36 39 41 43
33 36 37 39 40 42 44 44 46 47 50 52 48 47 46 44 43 42 40 39 39 37 36 35 34 35 36 35 35 35 34 34 34 34 34 36 37 36
35 37 38 40 41 43 45 46 46 46 45 47 47 45 46 44 44 42 41 37 36 34 32 34 36 36 36 36 35 34 33 32 33 35 36 38 39 40
37 38 40 42 43 45 46 45 44 43 44 45 44 44 44 43 43 43 38 36 35 34 31 31 33 33 34 34 34 33 32 31 32 34 37 40 42 41
38 39 41 43 45 45 45 43 42 43 44 44 45 44 43 42 42 41 38 37 34 35 33 32 29 31 31 33 34 34 33 35 37 39 42 42 41 40
38 40 42 44 45 43 41 41 42 43 45 46 46 43 42 41 40 39 39 37 37 36 36 36 31 29 29 32 32 32 34 36 38 39 38 34 35 32
40 41 42 43 42 40 40 40 40 40 43 44 43 41 40 38 38 38 38 38 38 36 36 38 33 32 32 31 30 32 34 35 35 33 30 28 30 31
41 42 42 39 38 40 41 41 39 39 41 40 38 38 37 37 37 39 40 39 38 36 36 39 34 33 33 29 28 31 33 33 32 29 26 27 26 27
40 39 39 39 40 41 41 40 39 38 38 37 36 35 34 35 35 38 38 39 38 36 33 37 33 32 32 28 26 28 29 30 29 27 27 26 26 27
36 36 37 39 39 39 40 40 40 39 38 37 37 35 35 33 33 34 37 39 39 39 32 36 32 32 32 28 25 24 25 26 29 28 28 26 26 26
35 35 36 37 37 37 38 38 38 38 37 37 37 36 36 36 34 33 33 36 38 37 34 36 34 32 33 33 29 27 25 24 28 29 28 28 26 26
35 35 35 35 36 35 35 35 35 35 36 36 36 36 36 35 34 33 33 34 34 36 34 34 35 33 33 32 31 28 25 23 24 25 28 27 27 25
33 34 35 35 35 34 34 35 36 37 37 37 36 35 34 35 34 35 33 34 33 31 30 31 35 35 34 33 32 31 25 21 21 21 24 27 27 27
30 31 33 34 35 36 36 35 35 36 36 36 36 35 34 34 34 35 36 35 35 30 26 28 32 33 33 32 32 30 23 25 20 21 21 23 24 27
31 32 33 33 34 34 34 33 33 33 33 33 34 35 35 35 34 35 35 35 35 34 31 27 26 30 31 32 30 26 23 23 22 23 25 24 22 22
32 33 34 35 35 36 35 34 31 31 32 32 32 33 34 34 35 33 34 35 35 33 31 30 30 28 27 26 27 24 24 24 22 24 25 26 23 20
32 33 35 35 35 34 34 33 32 31 32 32 31 31 32 31 33 33 34 34 34 31 28 28 29 28 30 28 17 21 25 25 24 23 23 24 26 24
32 33 33 34 34 34 33 32 31 30 30 29 29 29 29 31 32 32 33 34 33 31 29 27 28 28 29 29 26 15 20 25 25 23 22 22 21 22
30 31 32 32 32 32 32 31 31 30 28 27 27 27 28 29 29 31 32 31 30 31 31 28 27 27 27 28 25 21 16 21 25 25 25 25 22 22
29 28 28 29 29 29 28 27 26 26 25 25 25 26 26 27 28 29 29 31 30 31 31 28 27 28 25 25 25 23 21 18 22 26 28 26 26 27
26 25 26 26 27 27 26 26 25 25 24 24 24 23 24 25 26 28 30 31 31 31 30 29 27 26 23 23 23 23 21 20 20 22 24 26 29 29
Wind_Direction
315 318 320 320 320 320 318 319 319 318 318 320 319 317 315 313 311 309 308 305 301 297 295 293 292 291 289 287 284 283 281 279 276 274 272 277 282 276
314 316 317 318 318 317 317 317 317 315 315 318 319 317 316 315 313 313 309 304 302 298 295 292 291 291 290 288 286 285 284 283 282 280 278 276 274 280
312 314 315 317 315 315 315 315 314 313 313 315 315 315 315 313 313 311 307 306 304 300 296 294 292 289 288 286 286 286 285 284 283 281 280 278 277 276
310 313 314 314 314 314 313 312 312 311 311 313 315 314 311 311 309 306 304 302 299 298 298 297 295 292 291 290 287 285 284 284 284 282 280 278 280 277
309 311 311 312 312 312 311 311 311 310 311 311 312 312 311 312 307 306 304 301 299 297 296 296 294 293 292 289 288 286 284 283 281 281 279 277 274 273
309 310 310 311 312 310 310 309 309 311 312 311 311 310 311 309 308 305 304 302 300 299 302 300 297 293 291 290 287 287 287 288 286 285 282 279 275 270
307 309 311 311 310 310 310 311 312 313 311 309 310 312 312 311 308 308 307 304 304 304 305 301 296 292 291 288 286 286 286 288 288 287 284 280 274 269
307 310 310 309 309 309 310 311 314 314 312 312 313 313 312 311 311 310 309 308 305 307 307 305 306 299 292 286 282 282 284 286 289 289 287 282 276 274
309 309 309 308 308 311 312 313 313 311 308 309 311 311 311 310 310 310 309 308 306 308 307 304 308 301 295 290 286 287 288 291 290 288 285 275 276 271
309 309 307 309 312 313 312 312 311 308 308 310 309 310 311 312 312 311 310 308 308 310 309 304 307 301 295 291 288 288 291 293 287 282 279 270 276 273
307 307 311 314 314 313 311 311 310 309 310 310 310 311 310 309 309 307 308 307 309 309 311 304 303 298 293 290 287 289 292 290 282 276 273 268 271 270
309 311 313 312 312 313 312 312 312 310 310 309 312 312 311 310 309 308 309 310 311 310 316 304 302 301 294 291 288 288 288 279 274 273 272 269 269 270
311 313 312 313 315 315 313 312 311 312 314 314 314 312 312 313 313 311 310 309 309 311 315 307 303 301 295 295 295 295 292 284 275 270 267 267 267 267
314 315 317 317 316 314 313 312 313 313 313 313 314 314 313 313 315 314 314 311 310 312 313 307 303 301 297 294 295 293 292 288 281 270 266 263 266 266
318 317 318 316 315 315 315 317 317 317 316 316 315 315 315 316 316 315 313 312 311 312 311 306 300 298 297 295 294 293 292 285 288 273 268 264 263 264
315 313 313 315 318 319 318 318 317 316 315 316 315 317 317 316 316 316 315 314 313 312 313 309 300 297 297 294 292 292 292 285 284 281 270 267 264 264
314 315 317 319 319 318 316 315 314 313 314 315 315 315 315 316 318 318 317 317 317 317 316 313 303 296 296 296 293 293 290 283 281 280 270 268 266 268
318 320 321 321 321 319 316 313 315 314 315 314 313 313 315 318 319 321 321 319 318 317 316 316 314 302 293 294 295 290 280 282 283 279 277 275 267 264
322 323 322 323 322 320 321 319 319 317 313 311 312 314 316 319 321 322 322 321 319 316 318 319 317 311 305 307 298 285 282 277 279 282 283 281 275 268
324 322 321 321 320 319 319 319 315 311 309 311 313 316 318 320 322 323 324 322 321 322 324 324 320 314 306 306 304 303 280 279 273 275 277 279 281 273
323 325 323 322 322 321 318 314 311 310 312 314 316 317 320 322 324 325 324 324 326 326 325 326 322 317 307 303 300 302 296 269 272 276 276 277 279 277
327 329 329 329 328 326 325 323 323 321 319 318 318 321 323 326 326 327 329 331 331 328 326 326 323 318 311 300 300 299 299 284 269 270 276 277 280 278
337 339 338 337 337 338 339 338 336 332 328 326 325 326 328 330 330 334 336 335 332 331 330 329 327 322 316 307 303 301 295 294 280 270 270 272 280 283